This is the latest recevied weather packets stored in our database for station/object KK7KHO. If no packets are shown the sender has not sent any weather packets the latest 10 day(s).
| Time | Temp. | Humidity | Pressure | Rain* | Wind** | Luminosity | Snow |
|---|---|---|---|---|---|---|---|
| 1777933559 | 26.67° C | 46% | 1008.8 hPa | 0 mm | - | 559 W/m² | - |
| 1777933256 | 26.67° C | 48% | 1008.7 hPa | 0 mm | - | 568 W/m² | - |
| 1777932954 | 26.67° C | 47% | 1008.8 hPa | 0 mm | - | 575 W/m² | - |
| 1777932650 | 26.11° C | 47% | 1008.8 hPa | 0 mm | - | 583 W/m² | - |
| 1777932347 | 26.67° C | 47% | 1009 hPa | 0 mm | - | 590 W/m² | - |
| 1777932044 | 26.11° C | 45% | 1008.9 hPa | 0 mm | - | 597 W/m² | - |
| 1777931740 | 25.56° C | 47% | 1008.9 hPa | 0 mm | - | 605 W/m² | - |
| 1777931438 | 26.11° C | 46% | 1009.1 hPa | 0 mm | - | 613 W/m² | - |
| 1777931134 | 25.56° C | 46% | 1009.1 hPa | 0 mm | - | 618 W/m² | - |
| 1777930830 | 26.11° C | 46% | 1009.1 hPa | 0 mm | - | 624 W/m² | - |
| 1777930527 | 26.11° C | 48% | 1009.2 hPa | 0 mm | - | 629 W/m² | - |
| 1777930224 | 26.11° C | 48% | 1009.2 hPa | 0 mm | - | 634 W/m² | - |
| 1777929920 | 26.11° C | 49% | 1009.2 hPa | 0 mm | - | 639 W/m² | - |
| 1777929617 | 26.11° C | 51% | 1009.3 hPa | 0 mm | - | 644 W/m² | - |
| 1777929314 | 24.44° C | 50% | 1009.3 hPa | 0 mm | - | 651 W/m² | - |
| 1777929012 | 25° C | 50% | 1009.4 hPa | 0 mm | - | 654 W/m² | - |
| 1777928708 | 24.44° C | 54% | 1009.5 hPa | 0 mm | - | 658 W/m² | - |
| 1777928405 | 25.56° C | 51% | 1009.5 hPa | 0 mm | - | 656 W/m² | - |
| 1777928103 | 25° C | 50% | 1009.4 hPa | 0 mm | - | 657 W/m² | - |
| 1777927801 | 25° C | 52% | 1009.5 hPa | 0 mm | - | 669 W/m² | - |
| 1777927498 | 24.44° C | 50% | 1009.5 hPa | 0 mm | - | 641 W/m² | - |
| 1777927197 | 23.89° C | 54% | 1009.5 hPa | 0 mm | - | 660 W/m² | - |
| 1777926895 | 24.44° C | 50% | 1009.5 hPa | 0 mm | - | 655 W/m² | - |
| 1777926591 | 23.89° C | 51% | 1009.6 hPa | 0 mm | - | 587 W/m² | - |
| 1777926287 | 23.89° C | 52% | 1009.6 hPa | 0 mm | - | 555 W/m² | - |
* Rain latest hour (hover to see other rain measurements)
** Current wind speed in m/s (hover to see current wind gust speed)